Regional Weather Roundup
Issued by NWS

Home | Current Version | Previous Version | Graphics & Text | Print | Product List | Glossary On
Versions: 1 2 3 4 5 6 7 8 9 10 11 12 13 14 15 16 17 18 19 20 21 22 23 24 25 26 27 28 29 30 31 32 33 34 35 36 37 38 39 40 41 42 43 44 45 46 47 48 49 50
000
ASUS45 KSLC 211910
RWRUT

UTAH REGIONAL WEATHER ROUNDUP
NATIONAL WEATHER SERVICE SALT LAKE CITY UT
100 PM MDT SUN SEP 21 2014

UTZ001>011-023>025-212000-

NORTHERN UTAH

CITY           SKY/WX    TMP DP  RH WIND       PRES   REMARKS
HILL AFB       LGT RAIN  61  50  67 E10       30.22F
LOGAN          CLOUDY    66  50  56 S12       30.19S
OGDEN          CLOUDY    65  52  62 SE8       30.20R
PROVO AIRPORT  NOT AVBL
SALT LAKE CITY LGT RAIN  67  59  75 SE8       30.18F
VERNAL         LGT RAIN  63  52  67 W9        30.30R
WENDOVER       CLOUDY    64  54  68 S12       30.17R
HEBER CITY     LGT RAIN  55  52  88 CALM      30.28F
WEST JORDAN    CLOUDY    66  57  72 S14       30.21F

$$

UTZ012>022-026-027-212000-

SOUTHERN UTAH

CITY           SKY/WX    TMP DP  RH WIND       PRES   REMARKS
BRYCE CANYON   LGT RAIN  54  51  90 N8        30.37F
CEDAR CITY     CLOUDY    64  56  75 VRB5      30.23F
MILFORD        LGT RAIN  62  57  83 NW6       30.22R
MOAB/CYNLANDS  MOSUNNY   82  52  35 E14       30.11F
PRICE          CLOUDY    60  55  83 W6        30.28F
ST GEORGE      CLOUDY    75  61  60 N10       30.10F
KANAB          PTSUNNY   70  57  64 NW5       30.24F

$$

REGIONAL REPORTS     COLORADO/ARIZONA

CITY           SKY/WX    TMP DP  RH WIND       PRES   REMARKS
CRAIG, CO      LGT RAIN  62  52  69 NW8       30.38F
GRAND JUNCTION MOSUNNY   72  56  57 SE13      30.24F
RIFLE          CLOUDY    66  52  60 NE12      30.32F
MONTROSE       SUNNY     73  55  53 VRB5      30.30F
CORTEZ         MOSUNNY   80  51  36 S14G28    30.29F
PAGE, AZ       MOSUNNY   76  58  53 N7        30.17F
GRAND CANYON   PTSUNNY   71  52  50 SW10      30.29F
KINGMAN        MOSUNNY   87  43  21 SW14      30.06F
FLAGSTAFF      MOSUNNY   70  53  54 SW12G17   30.33F

$$

REGIONAL REPORTS    NEVADA/IDAHO/WYOMING

CITY           SKY/WX    TMP DP  RH WIND       PRES   REMARKS
LAS VEGAS, NV  MOSUNNY   85  57  38 VRB6      29.97F
ELY            MOSUNNY   63  51  65 E3        30.24F
ELKO           CLOUDY    62  52  69 NE5       30.18F
POCATELLO, ID  SUNNY     76  43  30 VRB3      30.16F
BURLEY         CLOUDY    71  50  47 NE5       30.13R
EVANSTON, WY   LGT RAIN  50  46  86 E10       30.35F
ROCK SPRINGS   CLOUDY    63  38  39 E8        30.34F

$$


USA.gov is the U.S. government's official web portal to all federal, state and local government web resources and services.